Weather History for Keahole Point, HI

Change the Weather History Date:

Saturday, November 10, 2012

  Actual Average Record
Temperature  
Mean Temperature 76 °F -  
Max Temperature 82 °F 82 °F 89 °F (1982)
Min Temperature 70 °F 71 °F 68 °F (1987)
Cooling Degree Days 11    
Growing Degree Days 26 (Base 50)    
Moisture  
Dew Point 62 °F    
Average Humidity 60    
Maximum Humidity 73    
Minimum Humidity 50    
Precipitation  
Precipitation 0.00 in - - ()
Sea Level Pressure  
Sea Level Pressure 29.98 in    
Wind  
Wind Speed 6 mph (ESE)    
Max Wind Speed 12 mph    
Max Gust Speed -    
Visibility 10 miles    
Events      
Averages and records for this station are not official NWS values.
T = Trace of Precipitation, MM = Missing Value Source: NWS Daily Summary

Daily Weather History Graph

Daily Weather History Graph

Search for Another Location

Airport:

Trip Planner

Search our weather history database for the weather conditions in past years. The results will help you decide how hot, cold, wet, or windy it might be!

Date:

Astronomy

Nov. 10, 2012 Rise Set
Actual Time 6:30 AM HST 5:45 PM HST
Civil Twilight 6:07 AM HST 6:08 PM HST
Nautical Twilight 5:40 AM HST 6:35 PM HST
Astronomical Twilight 5:14 AM HST 7:01 PM HST
Moon 3:12 AM HST (11/10) 3:19 PM HST (11/10)
Length of Visible Light 12h 01m
Length of Day
11h 15m
Waning Crescent, 13% of the Moon is Illuminated
Nov 10
Waning Crescent
Nov 13
New
Nov 20
First Quarter
Nov 28
Full
Dec 6
Last Quarter

Hourly Weather History & Observations

Time (HST) Temp. Heat Index Dew Point Humidity Pressure Visibility Wind Dir Wind Speed Gust Speed Precip Events Conditions
12:53 AM 75.9 °F - 63.0 °F 64% 30.00 in 10.0 mi East 10.4 mph - N/A   Partly Cloudy
1:53 AM 77.0 °F - 64.0 °F 64% 29.99 in 10.0 mi ESE 5.8 mph - N/A   Mostly Cloudy
2:53 AM 75.0 °F - 64.0 °F 69% 29.98 in 10.0 mi East 4.6 mph - N/A   Scattered Clouds
3:53 AM 73.9 °F - 61.0 °F 64% 29.97 in 10.0 mi Calm Calm - N/A   Partly Cloudy
4:53 AM 73.0 °F - 62.1 °F 68% 29.98 in 10.0 mi NE 3.5 mph - N/A   Clear
5:53 AM 70.0 °F - 61.0 °F 73% 29.99 in 10.0 mi NNE 4.6 mph - N/A   Clear
6:53 AM 70.0 °F - 60.1 °F 71% 30.01 in 10.0 mi East 3.5 mph - N/A   Clear
7:53 AM 75.9 °F - 62.1 °F 62% 30.02 in 10.0 mi ESE 3.5 mph - N/A   Clear
8:53 AM 80.1 °F 81.5 °F 63.0 °F 56% 30.03 in 10.0 mi South 3.5 mph - N/A   Clear
9:53 AM 80.1 °F 81.5 °F 63.0 °F 56% 30.03 in 10.0 mi WNW 3.5 mph - N/A   Clear
10:53 AM 82.0 °F 83.1 °F 63.0 °F 52% 30.02 in 10.0 mi Variable 4.6 mph - N/A   Clear
11:53 AM 82.0 °F 83.0 °F 62.1 °F 51% 29.99 in 10.0 mi SSW 11.5 mph - N/A   Mostly Cloudy
12:53 PM 82.0 °F 83.1 °F 63.0 °F 52% 29.96 in 10.0 mi SSW 10.4 mph - N/A   Mostly Cloudy
1:53 PM 82.9 °F 84.4 °F 64.0 °F 53% 29.93 in 10.0 mi SSW 11.5 mph - N/A   Clear
2:53 PM 82.0 °F 83.4 °F 64.0 °F 54% 29.92 in 10.0 mi SSW 9.2 mph - N/A   Mostly Cloudy
3:53 PM 81.0 °F 82.7 °F 64.9 °F 58% 29.91 in 10.0 mi SSW 10.4 mph - N/A   Partly Cloudy
4:53 PM 81.0 °F 82.5 °F 64.0 °F 56% 29.93 in 10.0 mi South 4.6 mph - N/A   Mostly Cloudy
5:53 PM 80.1 °F 81.9 °F 64.9 °F 60% 29.95 in 10.0 mi SSW 4.6 mph - N/A   Mostly Cloudy
6:53 PM 79.0 °F - 61.0 °F 54% 29.96 in 10.0 mi ESE 4.6 mph - N/A   Clear
7:53 PM 77.0 °F - 57.0 °F 50% 29.99 in 10.0 mi North 8.1 mph - N/A   Clear
8:53 PM 75.0 °F - 60.1 °F 60% 29.99 in 10.0 mi NE 4.6 mph - N/A   Clear
9:53 PM 75.0 °F - 64.0 °F 69% 29.99 in 10.0 mi East 4.6 mph - N/A   Clear
10:53 PM 75.0 °F - 60.1 °F 60% 30.00 in 10.0 mi NE 5.8 mph - N/A   Overcast
11:53 PM 75.0 °F - 60.1 °F 60% 29.98 in 10.0 mi ENE 3.5 mph - N/A   Partly Cloudy